Tracking 19854 objects as of 24-Sep-2019
HD Live streaming from Space Station
objects crossing your sky now

DELTA 1 R/B

Track DELTA 1 R/B now!
10-day predictions


NORAD ID: 10704
Int'l Code: 1978-026C
Perigee: 889.5 km
Apogee: 997.2 km
Inclination: 99.0 °
Period: 103.8 minutes
Semi major axis: 7314 km
RCS: 5.2616 m2 (large)
Launch date: March 5, 1978
Source: United States (US)
Launch site: AIR FORCE WESTERN TEST RANGE (AFWTR)

Note: This is a ROCKET BODY
aabbcc
Your satellite tracking list
Your tracking list is empty




NASA's NSSDC Master Catalog

Two Line Element Set (TLE):
1 10704U 78026C   19266.88827644 -.00000023 +00000-0 +15330-4 0  9998
2 10704 099.0172 184.5183 0073592 123.2668 237.5568 13.87835483956563
Source of the keplerian elements: AFSPC